www.pogodaiklimat.ru

Погода и климат >> Архив погоды >> Россия >> Свердловская область >> Нижний Тагил


АРХИВ ПОГОДЫ в Нижнем Тагиле

Время (UTC), дата Ветер
(напр.,м/с)
 
Видим.   Явления Облачность Т
(С)
Тd
(С)
f
(%)
Тe
(С)
Тes
(С)
Комфортность P
(гПа)
Po
(гПа)
Тmin
(С)
Tmax
(С)
R
(мм)
R24
(мм)
S
(см)
09 13.06 СЗ 6-10
{13}
20 км 9/9 600 м
[Cb cap]
+10.2 +2.5 59 +7 +8 очень
холодно
1011.1 980.1
12 13.06 СЗ 5-10
{16}
20 км {ливн. осадки} 8/6 600 м
[Cb cap Ci fib]
+10.2 -0.1 49 +8 +9 очень
холодно
1011.4 980.3
15 13.06 СЗ 6-11
{13}
20 км 5/5 600 м
[Cb cap]
+9.2 +1.1 57 +6 +6 очень
холодно
1012.5 981.3 +11.4 0.6
18 13.06 СЗ 4
{14}
20 км 3/3 600 м
[Sc]
+6.9 +1.5 68 +4 +4 очень
холодно
1014.1 982.6
21 13.06 З 3 20 км ясно +4.6 +1.4 80 +1 +1 очень
холодно
1014.1 982.3
00 14.06 З 3 20 км 6/6 600 м
[Sc]
+4.9 +1.5 79 +2 +2 очень
холодно
1013.1 981.4
03 14.06 З 5 20 км 4/0
[Ac trans]
+8.5 +2.2 65 +5 +7 очень
холодно
1011.8 980.5 +3.4
06 14.06 З 7-10
{13}
20 км 5/5 600 м
[Sc]
+12.4 +0.1 43 +10 +12 очень
холодно
1010.0 979.2
09 14.06 СЗ 5-11
{13}
20 км 8/8 600 м
[Sc]
+15.3 -0.3 34 +14 +16 холодно 1008.2 977.7
12 14.06 СЗ 4
{13}
20 км 8/8 600 м
[Cb cap]
+15.2 -1.7 31 +14 +15 очень
холодно
1007.8 977.3
15 14.06 СЗ 4 20 км 8/8 600 м
[Sc]
+13.8 -2.4 32 +13 +13 холодно 1007.6 977.0 +16.2
18 14.06 штиль 0 20 км 6/4 600 м
[Sc As op]
+7.3 +2.3 71 +7 +7 очень
холодно
1008.6 977.3
21 14.06 В 1 20 км 3/0
[As op]
+1.8 +0.5 91 0 0 очень
холодно
1009.2 977.3
00 15.06 З 1 20 км ясно +0.6 0.0 96 -2 -1 очень
холодно
1009.8 977.7
03 15.06 СЗ 2 20 км 3/0
[Ci sp]
+7.7 +3.9 77 +6 +10 очень
холодно
1009.4 978.1 +0.6
06 15.06 С 3 20 км 9/9 600 м
[Cb cap]
+12.4 +1.5 47 +11 +12 очень
холодно
1008.4 977.6
09 15.06 СЗ 3 20 км 9/5 600 м
[Sc Ac trans]
+15.7 -0.6 33 +15 +18 холодно 1007.0 976.6
12 15.06 З 5
{10}
20 км 9/9 600 м
[Sc]
+16.4 -2.0 28 +16 +16 холодно 1006.3 976.1
15 15.06 З 4 20 км 10/3 600 м
[Sc As op]
+14.7 +0.1 37 +14 +14 холодно 1006.2 975.7 +17.1
18 15.06 штиль 0 20 км 10/5 600 м
[Sc As op]
+8.6 +3.0 68 +8 +8 очень
холодно
1006.0 975.0
21 15.06 З 3 20 км 10/6 600 м
[Sc As op]
+9.6 +3.3 65 +8 +8 холодно 1004.8 973.9
00 16.06 З 3 20 км 10/10 600 м
[Cb cap]
+9.1 +4.3 72 +7 +7 холодно 1003.6 972.7
03 16.06 З 2 10 км слаб. ливневой дождь 10/10 600 м
[Cb cap]
+8.4 +7.3 93 +6 +6 очень
холодно
1003.2 972.2 +7.0 1
06 16.06 СЗ 5 20 км {ливн. осадки} 9/8 600 м
[Cb cap Ac As]
+10.9 +5.1 67 +8 +9 очень
холодно
1003.0 972.3
09 16.06 СЗ 3 20 км 8/8 600 м
[Cb cap]
+13.1 +4.1 54 +12 +14 очень
холодно
1002.7 972.2
12 16.06 С 5
{12}
20 км 9/9 600 м
[Cb cap]
+12.0 +4.4 60 +10 +10 очень
холодно
1003.7 973.1
15 16.06 В 2 20 км 8/8 600 м
[Cb cap]
+10.7 +4.2 64 +10 +10 очень
холодно
1004.6 973.8 +13.6 0.7
18 16.06 СЗ 4 20 км 8/3 600 м
[Sc Ci fib]
+8.1 +3.3 72 +5 +5 очень
холодно
1006.0 974.9
21 16.06 СЗ 1 20 км 3/3 600 м
[Sc]
+3.3 +1.9 91 +2 +2 очень
холодно
1006.8 975.1
00 17.06 штиль 0 20 км ясно +0.8 +0.6 99 -1 -0 очень
холодно
1007.7 975.7
03 17.06 З 3 20 км 5/0
[Ac trans]
+10.2 +3.6 64 +8 +11 очень
холодно
1006.5 975.6 +0.5
06 17.06 З 4 20 км 9/4 600 м
[Cb cap Cs]
+12.5 +3.0 52 +11 +15 очень
холодно
1005.7 975.1
09 17.06 Ю 2
{11}
20 км в посл. час дождь 10/0
[As trans]
+11.4 +6.8 73 +10 +16 очень
холодно
1004.9 974.2
12 17.06 ЮЗ 3
{10}
20 км {дождь} 10/10 600 м
[Cb cap]
+12.9 +4.4 56 +12 +12 очень
холодно
1003.3 972.8
15 17.06 З 2
{11}
20 км 10/10 600 м
[Cb cap]
+11.0 +6.4 73 +10 +10 очень
холодно
1003.5 972.8 +14.6 0.5
18 17.06 З 2 20 км 8/5 600 м
[Cb cap Ac trans]
+9.1 +7.1 87 +7 +7 очень
холодно
1003.5 972.6
21 17.06 СЗ 3 20 км 8/8 600 м
[Cb cap]
+7.9 +4.8 81 +5 +5 очень
холодно
1004.5 973.4
00 18.06 СЗ 2 20 км 3/3 600 м
[Sc]
+6.5 +3.9 83 +4 +4 очень
холодно
1006.2 974.9
03 18.06 СЗ 3 20 км ясно +10.4 +3.5 62 +9 +13 холодно 1007.2 976.3 +6.4
06 18.06 СЗ 5
{10}
20 км 8/8 600 м
[Cb cap]
+12.7 +2.2 49 +11 +12 очень
холодно
1007.4 976.7
09 18.06 СЗ 4
{10}
20 км 8/8 600 м
[Cb cap]
+15.0 +1.5 40 +14 +16 холодно 1007.3 976.8
12 18.06 З 6-11
{11}
20 км 9/9 600 м
[Cb cap]
+16.0 +3.2 42 +15 +15 очень
холодно
1007.1 976.8
15 18.06 З 5
{11}
20 км 9/9 600 м
[Cb cap]
+16.3 +4.5 45 +15 +16 холодно 1006.9 976.6 +16.8
18 18.06 ЮЗ 1 20 км 4/0
[As op]
+10.9 +5.6 70 +11 +11 холодно 1008.1 977.2
21 18.06 Ю 1 20 км 3/0
[Ac As]
+8.3 +5.3 81 +8 +8 холодно 1008.4 977.2
00 19.06 ЮЗ 1 20 км 10/0
[As op]
+9.8 +5.6 75 +9 +9 прохладно 1008.5 977.5
03 19.06 ЮЗ 1 20 км 10/8 600 м
[Cb cap As op]
+12.7 +6.0 64 +13 +13 прохладно 1008.5 977.8 +6.0
06 19.06 З 3 20 км 10/10 600 м
[Cb cap]
+16.2 +7.6 57 +16 +16 прохладно 1008.0 977.7
09 19.06 З 2 20 км 10/4 600 м
[Sc As op]
+18.4 +8.1 51 +19 +21 по сезону 1007.9 977.8
12 19.06 З 1 10 км слаб. дождь 10/8 600 м
[Sc As op]
+16.0 +12.7 81 +17 +17 холодно 1008.1 977.8
15 19.06 ЮЗ 2 20 км {дождь} 9/9 600 м
[Sc]
+18.3 +12.2 68 +19 +19 по сезону 1007.8 977.8 +18.7 0.3
18 19.06 ЮЗ 2 20 км {дождь} 8/8 600 м
[Sc]
+14.3 +12.3 88 +14 +14 прохладно 1008.7 978.2
21 19.06 штиль 0 500 м туман 4/4 600 м
[Sc]
+10.6 +10.1 97 +10 +10 холодно 1009.7 978.8
00 20.06 Ю 1 1000 м туман 9/4 600 м
[Sc Ci fib]
+11.6 +11.3 98 +11 +11 прохладно 1010.0 979.2
03 20.06 ЮЗ 1 20 км {туман} 9/8 600 м
[Sc As op]
+14.6 +13.2 91 +15 +16 прохладно 1010.6 980.1 +9.0
06 20.06 З 3 20 км {туман} 8/3 600 м
[Sc Ac lent]
+20.0 +13.1 64 +22 +25 комфорт 1009.6 979.7

 

Местоположение метеостанции Нижний Тагил (Свердловская область, Россия): широта 57.88 долгота 60.07 высота над уровнем моря 260 м.

В архиве по умолчанию представлена погода в Нижнем Тагиле за последнюю неделю. Архивные данные за месяц целиком и за предыдущие месяцы, начиная с января 2011 года, Вы можете получить, выбрав интересующий диапазон дат из раскрывающегося списка и нажав кнопку "Ввод!".


*Определитесь, кто Вы:
робот инопланетянин человек

Внимание! Время в таблицах - всемирное. Для получения местного времени необходимо прибавить поправку, которая равна 5 ч.

Смотрите также архив погоды в соседних городах и на ближайших метеорологических станциях:

Погода в Висиме (Свердловская область, Россия) (40 км)
Погода в Невьянске (Свердловская область, Россия) (44 км)
Погода в Кушве (Свердловская область, Россия) (52 км)
Погода в Кыне (Пермский край, Россия) (84 км)
Погода в Качканаре (Свердловская область, Россия) (94 км)
Погода в Алапаевске (Свердловская область, Россия) (96 км)
Погода в Бисере (Пермский край, Россия) (101 км)
Погода в Ревде (Свердловская область, Россия) (111 км)
Погода в Верхотурье (Свердловская область, Россия) (118 км)
Погода в Екатеринбурге (Свердловская область, Россия) (122 км)

Пояснения к столбцам:

Ветер - указаны скорость ветра в м/с - средняя за 10 мин, порывы в срок и между сроками (в фигурных скобках) и направление, откуда дует ветер: С - северный, СВ - северо-восточный, В - восточный, ЮВ - юго-восточный, Ю - южный, ЮЗ - юго-западный, З - западный, СЗ - северо-западный.
Видимость - горизонтальная дальность видимости в метрах или километрах. При видимости от 1 до 10 км при отсутствии осадков обычно наблюдается дымка, при ухудшении видимости до 1 км и менее - туман. В сухую погоду видимость может ухудшаться дымом, пылью или мглою.
Явления - указаны атмосферные явления, наблюдавшиеся в срок или в последний час перед сроком; фигурными скобками обозначены явления, наблюдавшиеся между сроками (за 1-3 часа до срока); квадратными скобками обозначены град или гололедные отложения с указанием их диаметра в мм.
Облачность - указаны через наклонную черту общая и нижняя облачность в баллах и высота нижней границы облаков в метрах; квадратными скобками обозначены формы облаков: Ci - перистые, Cs - перисто-слоистые, Cc - перисто-кучевые, Ac - высококучевые, As - высокослоистые, Sc - слоисто-кучевые, Ns - слоисто-дождевые, Cu - кучевые, Cb - кучево-дождевые. Подробнее классификацию облаков см. в Атласе облаков (PDF).
T - Температура воздуха - температура, измеренная на высоте 2 м над землей.
Td - Температура точки росы - температура, при понижении до которой содержащийся в воздухе водяной пар достигнет насыщения.
f - Относительная влажность воздуха - влажноcть воздуха, измеренная на высоте 2 м над землей.
Te - Эффективная температура - температура, которую ощущает одетый по сезону человек в тени. Характеристика душности погоды. При расчете учитывается влияние влажности воздуха и скорости ветра на теплоощущения человека.
Tes - Эффективная температура на солнце - температура, которую ощущает человек, с поправкой на солнечный нагрев. Характеристика знойности погоды. Зависит от высоты солнца над горизонтом, облачности и скорости ветра. Ночью, в пасмурную погоду, а также при ветре 12 м/с и более поправка равна нулю.
P - Атмосферное давление - приведенное к уровню моря атмосферное давление.
Po - Атмосферное давление - измеренное на уровне метеостанции атмосферное давление.
Tmin - Минимальная температура - минимум температуры воздуха на высоте 2 м над землей.
Tmax - Максимальная температура - максимум температуры воздуха на высоте 2 м над землей.
R - Количество осадков - Количество выпавших осадков за период времени, мм. При наведении курсора мыши на число - период времени, за который выпало указанное количество осадков.
R24 - Количество осадков - Количество выпавших осадков за 24 часа, мм.
S - Снежный покров - Высота снежного покрова, см. При наведении курсора мыши на число - состояние снежного покрова и степень покрытия местности в баллах.